TimeEDT,TemperatureF,Dew PointF,Humidity,Sea Level PressureIn,VisibilityMPH,Wind Direction,Wind SpeedMPH,Gust SpeedMPH,PrecipitationIn,Events,Conditions,WindDirDegrees,DateUTC
12:00 AM,80.6,75.2,84,30.06,6.2,ESE,5.8,-,N/A,,Mostly Cloudy,120,2013-08-21 04:00:00
1:00 AM,80.6,75.2,84,30.05,6.2,SSE,6.9,-,N/A,,Mostly Cloudy,160,2013-08-21 05:00:00
2:00 AM,81,78,87,30.04,8,ESE,4.6,,,,Partly Cloudy,120,2013-08-21 06:00:00
2:00 AM,80.6,77.0,89,30.04,6.2,ESE,4.6,-,N/A,,Mostly Cloudy,120,2013-08-21 06:00:00
5:00 AM,82,78,83,30.02,9,ESE,3.5,,,,Partly Cloudy,110,2013-08-21 09:00:00
5:00 AM,82.4,77.0,84,30.02,6.2,ESE,3.5,-,N/A,,Mostly Cloudy,110,2013-08-21 09:00:00
6:00 AM,80.6,75.2,84,30.02,6.2,SE,3.5,-,N/A,,Mostly Cloudy,130,2013-08-21 10:00:00
7:00 AM,80.6,75.2,84,30.04,6.2,East,3.5,-,N/A,,Mostly Cloudy,90,2013-08-21 11:00:00
8:00 AM,80.6,78.8,94,30.06,6.2,East,3.5,-,N/A,,Mostly Cloudy,90,2013-08-21 12:00:00
9:00 AM,84.2,77.0,79,30.06,6.2,ESE,8.1,-,N/A,,Mostly Cloudy,120,2013-08-21 13:00:00
1:00 PM,87.8,75.2,66,30.09,6.2,East,11.5,-,N/A,,Mostly Cloudy,90,2013-08-21 17:00:00
3:00 PM,86.0,77.0,74,30.05,6.2,ESE,9.2,-,N/A,,Mostly Cloudy,110,2013-08-21 19:00:00
4:00 PM,86.0,77.0,74,30.03,6.2,East,11.5,-,N/A,,Mostly Cloudy,90,2013-08-21 20:00:00
5:00 PM,86.0,78.8,79,30.01,6.2,East,11.5,-,N/A,,Mostly Cloudy,90,2013-08-21 21:00:00
6:00 PM,86.0,77.0,74,30.00,6.2,East,11.5,-,N/A,,Mostly Cloudy,90,2013-08-21 22:00:00
7:00 PM,84.2,77.0,79,30.01,6.2,East,10.4,-,N/A,,Mostly Cloudy,90,2013-08-21 23:00:00
8:00 PM,85,77,72,30.03,9,East,8.1,,,,Scattered Clouds,100,2013-08-22 00:00:00
8:00 PM,84.2,75.2,74,30.02,6.2,East,8.1,-,N/A,,Mostly Cloudy,100,2013-08-22 00:00:00
10:00 PM,84.2,75.2,74,30.04,6.2,ESE,4.6,-,N/A,,Mostly Cloudy,110,2013-08-22 02:00:00
11:00 PM,84,79,82,30.07,9,ESE,11.5,,,,Partly Cloudy,110,2013-08-22 03:00:00
11:00 PM,84.2,77.0,79,30.07,6.2,ESE,11.5,-,N/A,,Mostly Cloudy,110,2013-08-22 03:00:00